TVF40YE LGKR-LFPO

Flight info

Callsign TVF40YE
Flight time N/A
Altitude 34000
Route OLGAT DCT OKIMO DCT AIOSA DCT BAXON DCT PUNSA DCT UNKIR DCT DJL
Aircraft B738/M-SDE2E3FGHIRWXY/LB1

Departure

Time 2026-05-01 13:53
Airport Corfu Ioannis Kapodistrias International Airport (LGKR)

Arrival

Time N/A
Airport Paris-Orly Airport (LFPO)
Time Latitude Longitude Altitude Speed Heading
2026-05-01 13:26 39.60629 19.91365 6 ft 0 kts 79°
2026-05-01 13:44 39.60628 19.91362 6 ft 1 kts 79°
2026-05-01 13:44 39.60626 19.91343 6 ft 2 kts 79°
2026-05-01 13:44 39.60624 19.91324 6 ft 2 kts 94°
2026-05-01 13:45 39.60627 19.91306 5 ft 2 kts 113°
2026-05-01 13:45 39.60635 19.91289 5 ft 2 kts 133°
2026-05-01 13:45 39.60646 19.91277 5 ft 2 kts 153°
2026-05-01 13:45 39.60657 19.91272 5 ft 0 kts 167°
2026-05-01 13:46 39.60663 19.91271 5 ft 0 kts 170°
2026-05-01 13:47 39.60646 19.91272 5 ft 6 kts 182°
2026-05-01 13:48 39.60598 19.91226 5 ft 9 kts 227°
2026-05-01 13:48 39.60522 19.91153 5 ft 17 kts 196°
2026-05-01 13:48 39.60382 19.91167 5 ft 23 kts 169°
2026-05-01 13:48 39.60202 19.91209 5 ft 27 kts 169°
2026-05-01 13:49 39.60020 19.91256 7 ft 25 kts 168°
2026-05-01 13:49 39.59852 19.91300 8 ft 23 kts 168°
2026-05-01 13:49 39.59693 19.91342 9 ft 22 kts 168°
2026-05-01 13:49 39.59542 19.91380 9 ft 21 kts 169°
2026-05-01 13:50 39.59397 19.91417 9 ft 21 kts 169°
2026-05-01 13:50 39.59255 19.91453 8 ft 20 kts 168°
2026-05-01 13:50 39.59178 19.91504 9 ft 7 kts 189°
2026-05-01 13:50 39.59190 19.91471 8 ft 6 kts 348°
2026-05-01 13:51 39.59223 19.91463 9 ft 0 kts 349°
2026-05-01 13:53 39.59248 19.91456 8 ft 15 kts 349°
2026-05-01 13:53 39.60513 19.91132 6 ft 161 kts 348°
2026-05-01 13:53 39.61653 19.90844 642 ft 168 kts 349°
2026-05-01 13:54 39.62794 19.90564 1315 ft 172 kts 350°